Theta_e
308 308 308 308 308 308 308 307 307 307 307 307 307 307 307 307 307 307 307 308 308 308 308 309 308 308 309 309 309 309 310 310 311 315 317 318 317 317 317 316 314 313 314 314 314 314 315 315 314 314 317 319 318 319 318 319 331 338 333 323 324 329 329 331 325 318 318 319 320 320 317 316 318 319 317 315 317 319 319 318 318 315 315 316 314 313 315 318
308 308 308 307 307 308 308 308 308 308 308 308 307 307 308 307 308 308 308 308 308 308 308 308 308 308 308 308 309 309 310 312 313 317 318 320 319 318 318 316 314 313 313 314 314 314 316 317 313 315 320 321 319 319 320 320 323 333 332 323 330 337 332 330 323 317 317 317 317 320 318 316 317 317 315 316 318 319 318 317 316 316 316 315 313 312 315 318
309 308 308 307 308 308 308 309 309 309 309 309 309 308 308 308 308 307 307 308 308 308 307 308 308 308 309 309 310 310 312 314 317 318 317 318 318 317 317 315 314 313 313 314 314 314 316 316 312 316 320 318 320 321 323 322 320 330 329 324 338 340 330 326 322 319 317 316 317 320 318 317 318 317 315 315 318 318 317 316 315 316 316 316 316 313 316 320
309 308 308 308 308 308 308 309 309 309 309 309 309 309 309 309 308 308 308 308 308 308 308 309 310 310 311 312 312 313 314 317 319 318 315 315 315 315 315 314 314 313 313 314 315 315 315 315 313 317 319 318 323 322 324 325 320 324 324 327 339 331 324 326 325 322 318 316 317 318 318 318 318 317 316 315 317 317 316 316 316 316 315 316 317 313 316 319
309 309 309 308 308 309 309 310 310 309 309 310 310 309 310 309 309 309 309 309 309 310 311 311 312 313 313 314 315 314 316 318 317 315 314 314 314 314 314 314 314 313 313 315 316 315 315 314 313 317 318 318 321 319 323 327 321 321 323 328 333 324 320 323 324 321 317 317 317 318 318 317 317 317 316 316 316 316 315 316 316 317 316 315 314 311 314 318
310 309 309 309 309 310 310 310 310 310 310 310 310 310 310 310 310 311 311 312 312 312 313 313 313 314 314 315 316 315 315 317 315 315 315 314 314 315 314 314 314 313 313 316 315 314 315 314 314 318 318 317 318 317 319 320 318 322 323 324 327 322 319 320 320 319 317 316 316 318 317 315 316 317 316 317 316 316 315 316 316 315 313 312 312 311 314 322
311 310 310 309 309 310 310 310 310 310 311 311 311 311 311 312 312 312 313 313 313 313 312 312 312 312 314 315 317 319 318 317 316 317 318 316 315 315 315 314 313 313 313 315 314 315 317 315 315 318 318 317 317 318 317 315 317 321 323 324 323 320 320 320 318 318 317 315 316 316 314 314 315 316 317 317 315 315 314 315 313 311 310 309 311 313 314 316
312 311 310 310 310 310 311 310 311 311 311 312 311 312 312 312 312 312 312 312 313 312 311 311 311 310 313 314 318 324 323 321 318 318 320 319 316 315 314 314 313 313 314 315 314 315 316 316 316 316 317 317 316 317 316 314 318 320 320 320 319 318 320 320 317 317 317 316 315 314 314 314 314 313 315 315 314 314 314 313 313 312 311 311 312 313 312 310
314 312 311 311 311 311 311 310 311 312 312 312 313 313 313 313 314 314 313 313 313 313 312 312 311 309 311 314 319 325 324 321 320 319 319 318 316 315 314 314 313 313 314 315 314 313 315 317 317 315 316 317 315 315 315 315 318 318 316 315 315 316 316 316 315 316 316 314 313 313 315 314 313 313 314 316 316 315 314 313 315 314 314 314 310 308 308 309
315 313 312 312 311 311 311 311 312 313 314 314 315 315 316 316 316 316 316 316 315 315 314 313 312 310 310 314 319 323 321 320 321 321 319 316 315 314 314 314 314 314 314 315 314 314 315 316 316 314 316 317 314 314 314 314 315 315 313 314 315 316 315 314 315 315 313 313 313 313 315 314 313 314 314 317 319 315 313 315 314 312 314 312 308 306 306 307
316 314 312 312 311 311 311 313 314 315 315 316 316 317 318 318 318 319 318 317 316 315 313 313 311 310 312 316 320 321 319 319 320 321 318 315 314 313 314 315 315 314 314 315 314 314 315 315 314 313 315 315 313 315 315 314 314 313 313 315 317 316 315 314 315 314 312 314 315 315 315 314 313 314 316 317 317 314 313 315 313 312 313 310 307 307 307 307
316 314 312 311 311 312 313 315 316 316 317 318 318 319 319 319 320 319 317 315 314 313 312 312 310 311 313 315 319 318 317 318 318 318 317 315 315 314 315 317 316 315 314 315 315 315 315 314 314 315 316 315 315 316 314 313 313 313 313 314 317 316 316 315 314 313 312 314 316 314 315 317 315 316 318 316 314 313 314 314 312 311 310 308 307 308 307 306
316 314 312 311 311 313 314 315 317 317 318 319 319 319 319 320 320 318 316 314 314 312 312 311 309 311 314 315 316 314 316 318 318 317 316 317 317 316 316 317 317 316 315 315 314 314 314 314 314 316 315 315 317 315 313 314 314 314 313 313 315 316 318 317 314 313 313 314 315 313 316 323 322 318 317 316 312 312 314 313 311 310 307 306 307 307 305 304
316 314 312 310 312 314 314 316 317 318 319 319 320 320 320 320 319 317 314 313 313 312 311 310 309 312 313 315 315 312 314 317 318 318 317 318 317 316 317 316 316 315 315 315 314 314 314 314 314 314 314 315 316 313 315 318 317 314 312 316 317 315 322 323 314 314 315 315 314 313 316 322 323 319 318 315 310 311 314 312 309 308 307 307 307 305 305 304
315 313 311 311 313 314 314 315 316 318 320 320 320 319 320 319 317 314 313 313 312 311 310 309 310 313 313 315 314 312 315 316 317 318 317 317 316 315 316 316 316 314 314 314 314 314 313 314 314 316 315 314 315 317 320 323 325 319 314 324 325 316 322 324 315 316 317 315 312 312 317 319 318 319 320 317 310 310 312 311 310 309 308 307 306 305 304 303
314 312 311 312 313 314 314 315 317 320 321 321 320 320 320 319 316 313 312 311 310 310 311 312 314 314 314 315 313 313 315 315 316 317 317 316 316 316 315 315 315 314 314 313 313 314 313 315 314 315 316 313 317 326 327 323 328 326 317 324 328 319 318 319 318 318 316 314 312 312 317 317 317 319 319 317 312 311 311 310 310 309 308 306 305 304 303 302
314 313 313 314 314 314 315 317 320 321 321 321 320 319 320 320 317 312 311 312 314 314 314 315 315 314 313 313 313 315 315 314 315 317 316 315 316 316 313 313 313 312 313 312 313 313 312 314 313 314 317 315 318 324 326 323 326 329 321 319 324 319 316 317 320 319 315 315 314 314 315 314 317 317 316 314 311 311 311 311 311 308 307 306 304 303 302 302
314 313 314 316 315 314 316 319 321 322 321 321 320 320 321 320 316 313 312 313 313 314 314 314 314 316 317 314 314 316 315 314 316 316 316 316 316 315 313 312 310 311 312 312 313 313 313 316 317 318 317 315 316 318 321 324 324 327 324 320 321 320 317 317 319 319 317 316 316 317 316 316 316 315 315 312 310 312 312 311 309 307 306 305 304 303 302 301
313 313 316 317 316 316 319 321 322 322 321 320 320 321 321 319 316 314 313 314 317 318 318 316 315 320 320 316 315 315 314 314 315 315 314 315 315 313 312 311 312 313 314 315 313 313 316 319 319 319 317 315 315 315 318 322 321 321 321 319 320 319 318 317 316 317 316 315 317 318 317 317 317 317 316 311 310 313 312 310 308 306 305 304 303 303 302 301
314 314 317 318 317 319 321 322 322 321 320 320 321 321 322 324 323 320 317 318 322 321 320 318 316 319 318 317 316 314 314 313 313 314 312 313 314 313 312 311 314 316 316 321 319 313 316 319 319 319 319 318 316 314 314 315 316 315 316 316 317 317 316 315 316 319 315 314 319 318 316 318 318 317 313 309 314 315 311 310 307 305 305 303 303 302 301 301
314 315 317 320 321 321 322 322 322 321 320 320 321 321 323 326 327 325 323 323 320 315 318 318 314 315 316 315 315 313 315 315 313 313 311 312 313 313 314 313 315 316 317 323 319 312 314 318 320 320 318 317 315 314 312 312 313 313 314 315 317 317 317 316 317 318 314 314 321 320 315 319 319 314 310 310 315 312 308 308 306 305 305 303 303 302 301 301
315 315 317 322 323 322 322 322 322 321 320 320 320 318 318 318 318 317 319 325 323 316 317 318 314 315 315 314 315 314 317 319 316 314 312 311 312 314 315 314 316 319 318 317 316 314 315 317 318 316 314 314 314 313 312 314 314 314 316 316 319 319 319 320 319 318 316 314 322 323 316 318 317 311 308 309 310 307 305 306 305 304 304 302 302 302 301 300
316 315 318 322 322 321 322 322 322 321 320 320 319 317 315 315 315 314 315 323 325 319 318 320 318 319 318 316 315 314 317 320 319 318 313 310 313 315 315 314 316 318 317 315 317 318 319 320 317 313 312 313 314 314 314 314 315 317 318 318 320 319 318 323 322 320 318 314 318 319 316 318 315 310 309 307 306 305 304 304 304 303 303 302 301 300 300 299
316 317 320 322 320 321 323 322 322 321 321 320 319 318 317 316 314 312 315 320 322 321 319 318 317 320 321 316 313 315 318 319 320 318 313 312 314 314 314 315 315 318 317 315 317 318 320 320 316 313 315 315 316 316 315 315 318 322 323 319 320 319 319 322 321 320 320 317 317 315 319 327 321 314 312 308 306 305 304 303 303 303 302 301 300 299 299 298
317 320 321 320 319 321 321 322 322 321 320 319 319 318 317 317 313 312 318 323 324 324 319 314 316 318 316 312 313 315 317 317 317 314 311 311 314 314 314 314 315 318 317 314 314 316 317 317 316 317 317 316 317 319 319 319 319 323 326 322 319 320 321 321 320 320 323 323 318 313 322 335 330 319 314 310 308 306 304 304 303 302 301 300 299 299 298 297
317 320 320 319 319 320 321 323 322 321 320 319 319 318 316 316 313 312 321 328 328 328 322 317 318 316 311 311 313 315 319 318 312 310 311 311 312 313 315 315 316 317 317 315 316 318 318 315 316 320 321 319 319 321 323 321 319 321 324 322 321 322 321 320 318 319 324 325 318 314 319 328 329 321 314 312 310 306 304 304 303 301 300 299 298 297 297 296
318 319 320 319 319 320 322 324 322 321 322 322 320 318 317 316 313 313 321 330 331 328 323 317 315 314 312 310 310 316 325 320 310 309 311 311 310 311 314 317 316 315 316 318 320 321 318 316 317 318 320 321 320 321 321 320 322 324 322 323 325 321 319 321 318 317 322 321 320 320 316 318 322 319 314 313 312 308 305 304 302 301 300 298 297 296 296 295
318 319 320 320 320 321 322 323 323 322 323 322 319 318 317 316 314 316 326 335 333 324 319 315 311 311 310 308 309 315 317 314 314 312 308 309 311 310 314 318 318 318 316 318 326 325 317 316 320 319 318 320 322 323 322 319 322 325 322 321 321 318 319 322 318 319 319 314 322 327 316 315 322 322 317 312 313 312 306 304 302 301 299 298 297 296 295 295
319 319 320 321 321 321 321 322 323 323 322 321 319 318 316 314 314 320 329 334 329 319 315 312 309 309 310 309 311 312 310 310 314 313 308 309 310 310 314 315 316 316 312 315 323 323 316 314 319 322 320 321 323 323 322 321 320 320 318 320 323 323 322 320 318 321 319 315 322 325 318 318 324 328 323 314 314 316 308 303 302 300 299 297 296 296 295 295
320 320 320 321 322 321 321 322 322 323 322 321 320 318 315 315 317 325 332 330 325 319 314 311 311 311 312 312 311 310 309 311 312 311 311 311 311 310 311 310 313 317 317 319 321 319 316 312 314 319 319 321 323 318 316 319 317 315 318 322 327 328 325 323 323 322 319 321 325 323 319 318 321 331 327 315 314 313 307 303 301 299 298 297 296 296 295 295
321 321 321 321 322 322 321 322 322 323 322 321 321 318 317 319 321 329 332 324 322 321 314 312 313 310 312 315 315 311 310 311 311 313 313 312 312 312 311 311 314 320 323 323 321 319 316 313 315 318 316 317 320 315 314 317 316 317 322 324 325 328 327 326 325 321 320 327 329 322 318 316 320 329 322 311 308 308 306 304 300 299 298 297 296 295 295 294
322 322 321 321 321 321 322 322 322 323 323 322 321 319 321 324 325 329 328 322 324 324 318 318 315 310 312 316 317 313 312 313 311 314 317 315 315 314 315 320 319 321 324 323 323 321 320 319 318 317 314 315 320 319 316 317 317 319 322 323 324 324 324 326 325 322 324 326 323 319 317 316 321 321 312 305 304 305 306 303 299 298 297 297 296 295 295 294
323 323 322 321 321 321 321 322 322 322 323 321 321 323 324 326 327 328 327 325 326 321 318 321 317 315 316 317 320 316 314 316 312 313 316 316 316 315 318 322 319 318 322 322 322 321 323 324 318 314 314 317 319 319 319 321 319 316 318 322 325 323 325 330 327 320 322 324 319 317 318 320 325 318 305 302 301 301 302 301 298 297 296 296 296 296 295 294
323 323 322 321 321 321 322 322 322 322 322 320 323 325 324 326 326 325 326 327 324 320 318 319 317 317 318 319 323 320 316 317 314 312 315 314 315 319 320 317 315 318 321 319 320 322 324 327 322 318 318 318 315 315 323 328 319 314 318 320 322 326 329 331 328 323 325 326 320 316 318 326 329 315 302 300 299 298 299 298 297 297 297 297 296 296 296 294
321 320 320 320 319 320 321 321 322 321 321 320 323 325 324 326 326 325 327 326 323 321 318 319 319 318 319 322 325 322 318 319 316 314 317 317 319 324 326 322 317 319 322 321 322 321 320 326 327 319 314 315 314 315 323 326 318 314 316 318 319 325 326 323 324 324 323 323 321 319 322 322 316 306 299 300 299 298 298 297 297 298 297 296 297 296 295 295
318 317 318 318 318 320 320 321 321 320 320 321 324 325 323 325 327 327 328 324 323 323 319 321 323 319 321 325 325 322 319 321 319 315 317 319 319 322 327 328 321 317 318 322 324 321 318 324 325 315 312 315 316 317 318 321 321 315 314 320 321 320 321 322 322 320 317 319 320 321 321 314 309 306 302 300 300 299 298 298 297 298 297 297 297 297 296 295
316 316 316 316 318 319 320 320 320 319 320 322 324 324 322 324 325 325 326 321 321 324 321 323 323 320 322 324 324 324 321 321 320 318 321 321 319 320 322 324 320 315 316 319 323 323 320 324 324 316 315 316 313 315 316 316 319 319 318 322 319 315 320 324 323 321 320 320 319 320 321 317 316 315 304 300 302 300 298 299 298 298 298 298 298 297 296 295
313 313 313 314 317 319 319 319 319 318 320 323 323 323 323 324 322 322 324 321 321 323 323 324 324 322 324 324 325 324 322 322 321 320 324 323 321 321 320 319 317 315 316 315 317 321 320 323 324 317 317 318 313 315 318 313 312 318 321 319 316 319 324 322 320 322 322 319 320 324 322 317 318 317 309 306 305 301 299 299 299 298 298 299 298 297 296 295
311 313 315 313 314 318 319 318 317 318 321 324 324 323 323 323 323 323 323 321 323 325 326 326 324 323 324 324 326 325 321 323 323 322 323 322 321 321 319 319 318 317 318 316 316 322 321 321 324 317 315 318 316 317 321 318 313 314 316 315 316 320 322 320 318 321 322 318 320 322 318 319 322 319 317 313 304 300 300 300 299 299 299 299 298 297 296 296
310 316 317 312 311 316 318 317 317 320 323 324 323 323 322 321 323 325 322 320 322 324 326 327 324 324 326 323 324 326 323 323 324 323 324 323 321 321 320 321 319 318 320 317 317 321 319 318 322 320 315 317 319 320 324 324 317 316 317 317 317 317 318 319 317 318 322 321 321 319 316 321 323 314 314 313 303 299 300 300 300 300 299 299 298 297 296 295
310 317 316 310 310 314 316 317 318 320 323 323 323 322 321 320 322 323 322 321 321 320 322 325 325 324 325 324 324 324 322 324 324 323 324 323 322 321 319 318 318 317 318 318 319 319 317 318 322 321 319 321 324 320 319 322 323 323 323 320 320 320 319 319 317 318 320 319 321 318 316 321 318 308 307 308 302 300 300 300 301 301 301 300 298 296 295 295
311 316 313 309 311 313 316 319 319 319 321 322 322 321 320 320 320 320 320 321 321 319 318 320 322 322 323 324 323 321 321 323 322 321 323 323 323 321 316 313 315 317 318 319 318 315 316 321 322 321 320 320 318 314 312 316 320 322 320 318 320 322 321 320 318 318 318 317 318 319 319 319 311 306 306 303 300 300 299 300 302 302 300 299 297 296 295 295
311 313 310 309 311 314 316 319 319 319 320 319 319 319 319 319 319 319 319 319 320 320 318 318 319 320 321 320 319 318 319 320 321 320 320 321 319 316 314 314 314 316 319 319 317 315 316 320 320 321 322 318 314 314 315 315 315 317 316 316 318 320 320 320 318 318 319 318 318 318 319 317 309 306 306 302 300 300 299 300 303 302 300 299 298 297 296 295
310 310 309 309 310 313 316 318 318 318 319 318 317 318 318 317 318 318 318 318 320 319 318 318 318 319 320 319 317 317 317 318 319 318 317 318 316 312 312 314 313 314 317 316 317 318 318 318 319 320 322 319 316 316 318 318 317 317 316 315 315 316 317 316 315 317 317 316 317 317 318 316 310 305 305 302 302 302 300 300 302 302 302 300 299 297 296 296
310 310 310 309 309 311 314 315 315 317 317 317 317 317 317 317 317 317 318 318 318 319 318 318 319 319 319 318 318 317 316 317 319 317 316 317 315 312 312 312 312 314 315 313 315 317 316 316 318 319 319 318 317 316 318 319 317 314 313 312 312 314 316 314 313 315 316 315 315 315 315 315 310 306 305 304 303 303 303 302 302 302 302 301 299 298 297 297
311 312 310 309 310 311 312 312 313 315 316 316 317 317 316 317 316 316 317 317 317 317 318 318 317 317 318 317 317 316 316 316 316 316 317 317 315 313 311 309 311 313 313 311 314 316 316 315 316 317 316 316 316 316 314 314 315 313 312 312 311 311 312 312 312 312 314 313 311 312 313 312 311 308 306 305 305 304 304 303 302 303 302 301 300 298 296 297
309 311 310 310 311 311 311 312 312 313 314 316 316 316 316 316 316 315 316 316 316 316 317 317 315 316 317 317 317 316 316 316 315 315 317 316 313 311 308 307 309 310 310 310 312 314 315 313 312 314 314 313 313 315 313 311 312 313 311 311 311 309 308 309 309 310 312 312 310 310 310 310 311 309 307 307 307 305 304 304 303 304 302 299 298 296 296 296
306 308 307 308 310 311 311 312 312 312 314 314 315 315 316 316 315 315 315 315 316 316 317 317 315 316 317 317 316 317 316 316 315 315 315 314 312 311 309 308 308 308 309 309 310 313 315 314 311 311 313 312 310 310 310 309 310 311 310 311 310 308 307 308 308 308 310 310 308 308 307 307 308 306 305 307 309 309 308 305 303 302 300 298 296 296 296 296
304 304 303 304 307 310 310 310 311 312 313 313 313 315 315 315 315 314 314 315 315 314 315 317 316 315 315 315 316 317 316 316 315 314 314 313 312 311 311 311 308 306 308 309 308 310 313 313 310 310 313 312 308 307 307 306 307 308 308 308 307 306 305 306 306 306 306 307 307 306 306 305 304 303 304 307 308 307 305 303 301 301 300 298 296 296 296 295
302 302 303 303 303 305 308 310 310 312 313 312 313 313 312 313 314 313 313 315 315 314 314 315 315 315 314 314 315 315 314 315 315 314 313 313 312 310 311 312 308 305 307 308 306 306 309 310 308 308 311 309 305 305 307 305 305 305 305 304 303 303 303 303 303 303 303 304 304 304 304 304 302 303 304 304 303 301 300 301 302 301 299 297 295 295 295 295
298 298 299 302 303 304 307 309 309 311 312 312 313 313 311 312 313 312 312 312 313 314 314 314 314 314 312 312 312 313 313 314 313 312 310 311 311 310 311 311 308 306 307 306 305 306 308 308 306 307 311 307 302 303 305 304 303 302 302 301 300 301 302 301 301 302 302 302 302 302 303 302 302 303 303 300 299 300 301 302 301 298 296 295 295 295 295 295
296 296 296 299 303 304 306 308 309 310 310 310 310 311 311 311 311 312 311 309 309 308 309 312 313 312 312 312 311 312 311 309 306 304 303 304 305 306 308 308 307 308 307 304 305 306 306 307 306 306 308 305 300 300 303 303 303 301 299 299 299 299 299 299 299 300 301 301 302 302 301 301 301 302 301 299 298 298 299 299 299 297 294 294 295 295 295 295
Wind_Speed
3 3 3 3 3 3 3 3 3 3 3 4 4 4 4 5 5 5 5 6 6 7 7 8 8 9 10 10 11 13 14 15 16 12 7 5 3 5 3 3 2 1 4 6 8 7 4 2 2 2 2 2 3 1 2 2 3 4 3 3 1 3 3 5 5 3 2 4 5 6 2 1 5 5 3 3 3 4 6 6 5 5 6 10 10 8 7 5
3 3 3 3 3 3 2 2 2 3 3 3 4 4 4 5 5 5 5 6 6 7 7 7 8 8 9 10 11 12 15 17 15 9 5 1 5 6 2 1 2 2 5 6 7 6 5 1 1 3 4 2 2 2 2 2 2 3 3 2 3 5 5 5 6 4 2 4 5 6 3 2 4 4 2 2 6 6 7 9 7 7 9 11 13 8 5 9
4 3 4 4 3 3 3 3 2 2 2 3 3 3 4 5 5 5 5 6 6 6 6 7 7 8 8 9 10 12 14 13 8 3 3 6 9 8 3 0 0 3 5 5 5 5 4 1 3 4 4 2 2 2 2 1 0 2 3 1 6 6 5 5 5 5 5 5 5 6 3 2 6 3 1 2 6 7 6 9 8 11 11 8 9 6 6 11
4 3 4 4 4 3 2 3 3 2 3 3 3 4 4 5 5 5 5 6 6 6 6 6 6 7 7 8 8 10 12 7 1 2 3 7 9 7 4 2 2 5 6 5 4 4 2 1 3 4 4 1 3 3 1 2 1 1 4 4 6 4 3 7 7 5 4 3 3 6 4 6 7 2 1 2 6 9 7 8 8 13 14 8 7 6 7 10
4 3 4 4 4 3 2 3 3 3 3 3 3 4 5 5 6 5 6 6 6 6 7 7 7 7 7 7 7 8 8 5 1 3 4 6 7 6 4 4 4 6 9 7 5 4 2 2 4 4 4 0 2 3 2 4 3 1 3 6 6 3 3 8 6 3 4 4 5 6 5 6 5 2 1 2 5 9 7 8 10 11 13 10 8 6 7 8
4 4 3 4 3 3 3 3 3 3 3 3 4 5 5 6 6 6 7 7 7 7 7 7 7 6 6 5 5 4 3 0 4 3 4 4 4 4 3 3 4 7 10 8 5 4 3 3 4 2 2 0 2 2 4 2 3 2 4 4 5 5 5 6 4 4 4 4 6 4 4 3 5 7 3 6 10 11 9 9 9 10 13 13 9 6 6 8
5 5 4 4 3 3 3 3 4 3 3 4 4 5 6 6 7 7 8 8 8 7 7 7 7 6 5 3 2 2 3 4 8 6 6 5 5 4 2 3 4 7 11 9 5 4 4 4 2 4 4 1 3 4 4 1 2 5 4 5 5 5 6 6 4 6 5 5 8 4 4 5 5 7 2 7 13 13 12 9 8 13 15 12 8 7 8 8
6 6 6 5 4 4 4 4 4 4 4 4 5 5 6 7 8 8 9 9 9 8 7 6 6 4 3 2 1 3 1 7 9 8 8 6 8 6 3 4 5 8 10 8 6 5 4 4 4 3 3 2 3 3 3 2 0 5 5 4 4 3 6 7 5 8 8 7 6 3 7 9 8 5 3 12 17 15 11 6 6 10 11 8 6 7 7 7
7 7 7 6 5 5 4 4 4 4 4 4 5 6 6 7 8 9 10 10 10 9 7 5 5 3 2 2 4 2 4 6 6 7 7 6 8 6 5 4 6 9 8 6 5 5 3 4 4 4 4 3 3 2 1 2 2 4 5 3 3 5 6 6 7 9 8 5 2 4 11 11 6 3 5 13 16 14 8 5 6 6 8 8 6 8 8 8
8 8 8 7 6 5 4 3 3 4 4 4 5 6 7 8 9 10 10 11 11 9 7 4 4 3 4 3 6 1 5 3 4 5 5 7 7 6 6 4 6 8 7 4 4 4 3 4 3 4 5 2 2 2 0 3 3 4 3 4 4 6 7 4 7 11 7 6 4 5 12 11 4 1 4 10 12 8 6 7 7 4 8 7 9 9 9 10
9 9 9 7 5 4 3 2 3 3 4 4 5 6 7 8 9 10 10 10 10 8 7 4 4 4 5 4 5 3 5 3 4 3 4 6 5 5 5 4 4 7 6 4 3 4 3 5 4 4 2 1 1 2 2 3 2 1 1 6 7 7 8 5 8 10 4 5 5 8 7 8 2 2 7 12 11 5 6 9 8 6 6 7 9 7 8 10
10 10 9 7 4 3 3 3 2 2 3 4 5 6 7 8 9 9 9 9 9 7 6 4 5 6 5 3 4 8 6 4 4 3 5 5 5 4 4 4 4 5 6 4 3 3 3 4 5 4 2 2 1 2 2 2 0 1 3 5 8 7 8 10 8 4 1 3 4 8 3 7 1 6 11 13 9 7 8 10 7 7 6 8 8 7 8 10
10 10 9 7 4 4 3 3 2 2 3 3 4 6 7 8 9 8 8 8 8 6 4 3 6 8 5 0 5 10 10 6 4 4 4 5 4 3 4 4 4 4 4 4 4 4 4 3 4 3 2 4 1 2 0 1 2 3 2 1 6 6 7 9 2 1 2 3 6 7 2 6 7 10 12 11 7 7 9 8 7 7 7 7 6 7 8 11
11 9 8 5 5 4 3 2 2 3 3 4 5 6 7 8 8 7 8 8 7 5 3 3 8 8 4 3 4 6 9 8 7 6 5 5 4 4 6 5 5 4 3 4 5 5 4 2 3 3 1 2 1 1 3 5 3 2 2 1 3 2 5 8 2 0 4 2 6 6 2 6 9 11 12 10 4 3 7 6 8 7 7 6 6 8 7 9
11 9 6 5 5 4 3 2 2 3 4 5 5 7 8 8 7 6 7 7 5 2 2 5 8 6 1 5 5 3 6 8 9 8 6 6 5 4 6 7 5 4 2 3 4 3 3 2 3 2 1 2 3 4 3 4 3 2 1 3 3 2 5 10 7 4 3 3 4 6 2 5 8 11 12 10 3 2 5 6 8 7 8 7 6 7 6 7
9 7 6 5 5 4 3 2 2 3 5 6 6 7 8 7 5 5 5 4 4 4 5 5 5 4 1 3 2 1 5 6 7 8 7 7 6 4 6 6 5 4 4 3 4 3 2 3 2 1 1 1 3 4 3 4 4 3 1 4 3 3 3 6 8 2 4 1 2 3 2 4 7 8 11 11 7 6 6 6 8 7 7 7 6 6 6 6
7 7 7 6 6 5 4 3 2 4 5 6 7 7 8 7 4 2 4 5 6 7 6 3 3 1 2 2 0 2 4 6 7 9 9 7 6 7 7 6 4 6 5 4 4 2 2 3 1 0 2 2 3 4 3 2 4 3 1 3 4 4 3 3 6 5 3 3 2 2 2 5 9 9 12 12 8 8 6 5 7 7 6 6 5 6 7 7
8 8 8 7 7 6 4 3 2 4 6 6 7 9 8 6 2 0 3 4 5 6 4 2 3 0 3 2 2 3 2 5 7 9 9 6 7 8 6 4 5 7 5 4 2 2 2 3 2 0 2 2 2 4 2 5 5 5 4 3 4 3 4 5 5 5 6 5 4 5 5 7 10 10 11 9 6 7 5 6 7 6 6 5 6 7 7 8
9 9 10 8 7 6 4 3 1 4 6 6 7 8 6 3 1 1 1 2 3 2 0 2 3 2 3 3 2 2 3 6 7 7 8 7 9 8 5 5 6 6 4 1 1 0 2 3 4 1 2 3 5 7 9 9 7 7 6 3 4 4 5 6 6 6 3 4 5 6 7 7 8 11 10 8 5 6 4 8 7 5 6 6 7 7 7 8
10 11 11 9 8 5 3 2 1 4 6 6 7 6 2 1 2 2 1 1 4 5 2 4 7 3 3 2 3 5 5 5 3 3 8 8 9 7 3 4 5 4 2 4 2 1 3 3 2 5 7 8 11 11 11 7 4 3 3 2 4 5 6 5 6 7 1 1 6 5 4 6 9 9 9 8 6 9 6 8 7 6 6 6 7 7 7 7
12 13 13 9 7 4 3 2 2 4 5 6 5 2 1 2 1 2 2 3 9 10 6 7 9 7 6 3 7 9 5 1 1 1 7 8 9 8 1 2 4 1 2 4 2 1 3 4 7 10 11 11 10 9 7 4 2 2 3 4 5 5 6 7 6 6 2 1 5 3 3 8 10 6 7 7 8 9 6 7 7 7 7 6 7 7 6 5
13 15 13 9 7 5 3 2 2 3 4 4 3 1 2 3 2 2 1 2 8 10 10 9 7 8 8 5 7 8 4 1 3 2 7 7 6 6 2 3 4 3 2 3 3 1 2 4 12 13 9 6 5 3 5 4 4 3 2 2 4 4 4 7 5 4 2 1 5 4 4 8 8 4 6 7 8 6 6 7 6 6 7 6 6 6 5 5
15 16 14 10 7 4 2 1 3 4 3 3 2 3 3 2 2 1 2 0 6 5 6 7 5 6 6 5 8 8 5 5 4 5 9 9 3 4 4 5 6 4 3 5 5 5 4 6 13 10 5 4 5 4 5 3 2 3 4 3 5 4 1 4 5 4 3 1 3 3 4 7 3 5 6 6 6 6 7 8 7 7 7 7 6 6 6 6
15 15 14 10 7 4 2 2 4 4 4 3 2 3 4 2 2 3 2 0 4 4 4 5 4 4 5 3 7 9 5 4 3 4 11 11 4 3 4 6 6 4 4 8 9 7 7 7 5 3 6 7 6 6 4 4 2 4 6 6 6 5 5 5 3 4 4 4 2 3 5 5 1 3 3 4 5 6 6 7 8 7 6 6 6 6 7 7
16 15 13 11 7 4 2 3 3 4 4 3 3 4 5 3 3 4 2 1 3 5 3 3 2 3 4 3 6 7 2 1 2 3 9 10 5 3 3 3 5 5 7 7 7 5 9 6 3 5 4 6 5 6 4 6 3 4 5 9 9 7 6 4 2 4 4 4 3 4 4 5 4 1 4 3 3 5 4 5 7 6 6 6 6 7 6 7
17 15 13 12 9 5 2 2 3 5 3 4 4 4 4 3 3 3 2 3 3 4 1 2 2 3 4 3 3 4 3 2 1 2 6 6 3 3 2 1 1 4 6 4 3 3 6 5 4 5 5 6 5 6 5 7 4 3 5 7 7 5 4 3 2 3 1 3 3 3 1 5 6 4 5 5 4 4 4 5 6 5 6 5 5 6 5 6
15 14 14 12 10 8 4 1 5 5 2 3 6 5 3 2 3 3 2 3 4 3 3 1 0 3 4 1 1 5 2 3 2 3 2 3 1 2 2 2 1 2 3 3 1 3 4 2 3 6 5 5 5 5 6 9 7 3 4 5 7 6 5 5 4 2 3 2 4 3 2 3 5 5 5 7 6 4 4 4 5 4 5 5 5 5 6 6
16 15 15 13 11 10 7 2 4 5 2 3 5 5 2 3 4 2 3 1 4 1 3 1 0 2 1 1 3 4 2 1 4 1 1 4 1 2 1 4 5 4 1 5 3 5 2 2 4 7 5 5 6 4 6 10 5 6 5 6 6 6 6 5 5 2 1 1 5 4 1 2 5 5 2 4 5 3 4 4 3 4 4 5 5 5 5 5
17 17 16 14 11 11 11 8 6 6 4 4 6 4 3 5 4 4 3 2 2 1 1 0 2 1 1 2 3 2 0 1 2 2 1 3 1 3 2 5 6 3 2 4 5 5 0 3 5 7 5 6 5 2 5 8 4 4 5 5 4 4 4 4 5 3 2 1 5 6 3 2 5 6 2 2 4 4 5 4 3 4 3 4 4 4 5 5
18 19 18 16 14 14 13 13 15 10 5 5 5 4 4 4 3 3 4 4 0 1 1 1 1 1 3 4 1 0 1 1 0 1 2 1 2 4 1 2 4 3 1 3 2 4 2 2 2 4 4 5 4 2 1 3 4 4 5 5 5 5 4 4 2 4 3 3 6 8 9 5 3 5 3 2 3 4 8 5 4 4 4 4 4 4 4 4
20 20 20 19 19 18 11 10 19 18 10 6 6 4 3 2 2 3 6 2 2 0 1 1 1 2 5 5 2 2 2 0 0 2 2 1 2 3 1 1 3 3 3 4 3 4 5 3 2 2 2 4 6 4 3 3 4 6 5 4 3 4 4 4 4 4 1 5 6 5 6 5 4 5 2 2 5 2 7 10 9 8 5 4 4 3 2 3
24 23 24 24 23 20 14 10 15 18 16 10 6 4 2 1 2 4 3 1 0 2 3 3 2 3 4 3 2 3 3 1 1 3 3 3 2 2 2 3 4 2 2 3 3 4 3 4 4 4 2 4 6 3 3 5 5 5 4 5 4 2 3 3 3 0 3 6 4 2 4 2 5 4 3 4 7 6 2 9 11 10 8 6 4 3 2 2
24 25 26 28 27 25 23 17 12 15 19 13 6 4 2 3 4 3 3 1 2 2 2 3 2 4 5 3 2 3 2 2 3 3 2 3 2 4 4 3 5 2 0 4 2 1 3 5 2 1 3 2 7 5 2 1 1 4 5 4 4 2 1 3 4 1 3 5 2 2 3 2 4 2 4 4 5 5 3 8 8 8 8 7 5 4 3 2
25 25 26 27 28 28 27 21 14 17 22 14 5 3 3 5 3 3 5 4 1 0 1 2 3 4 4 3 4 3 3 3 4 4 2 3 2 3 4 4 4 3 2 3 2 3 2 5 2 5 2 3 7 6 5 5 3 4 4 5 5 4 4 4 4 3 4 4 3 1 1 2 3 1 3 3 4 4 6 7 6 6 6 5 5 4 3 2
21 21 23 24 25 25 25 21 17 21 22 12 4 4 6 5 2 2 4 4 1 0 2 2 4 4 2 2 3 3 4 3 3 4 2 3 3 4 3 4 5 4 3 2 2 2 3 5 6 3 1 5 6 4 5 6 2 2 3 5 3 4 5 2 3 5 3 3 3 2 2 3 3 1 2 2 4 5 6 6 6 6 4 4 4 4 4 3
16 16 17 18 18 21 22 19 17 23 19 8 3 6 6 4 3 3 3 2 3 3 3 1 3 3 3 2 2 3 1 1 3 3 2 3 3 4 4 4 6 8 6 4 3 2 2 4 5 2 1 4 6 5 4 3 2 2 3 3 4 4 6 3 2 0 3 1 4 2 2 2 0 1 1 3 4 4 4 4 5 5 4 4 4 4 4 3
16 14 11 11 13 17 18 16 21 24 13 5 5 7 4 3 4 4 2 1 2 4 5 2 2 4 4 2 3 4 2 1 2 3 2 3 3 5 5 3 3 9 10 5 2 3 4 3 5 1 2 3 3 3 2 2 4 5 3 5 3 1 4 4 1 2 3 2 4 1 3 3 1 2 1 2 3 3 3 4 4 4 4 5 5 4 4 3
14 10 5 7 13 15 14 16 22 18 6 4 9 7 4 4 3 2 2 2 2 3 4 4 4 4 4 4 4 3 4 3 3 3 2 2 3 4 6 3 1 5 7 3 1 2 3 2 6 1 3 2 2 2 1 3 3 5 4 3 3 2 1 1 2 2 1 3 4 4 4 3 4 4 3 6 8 7 6 5 5 6 6 6 5 5 5 4
10 6 1 5 12 15 15 19 18 10 3 6 9 7 4 4 4 3 3 2 2 2 3 4 2 2 3 4 3 3 5 5 5 4 3 3 4 2 3 3 2 1 2 3 4 2 3 2 4 2 2 1 3 2 2 2 2 2 0 1 1 2 4 2 2 3 3 3 4 5 5 4 5 5 7 10 10 10 8 7 7 8 7 7 6 6 6 5
5 3 1 4 12 15 17 16 10 4 4 6 6 5 3 3 4 2 1 2 1 1 3 3 2 2 3 3 2 3 4 5 5 5 3 3 3 2 1 1 2 2 3 3 4 0 2 3 3 3 2 0 1 2 5 5 2 2 1 2 1 1 1 1 1 2 3 3 3 4 5 5 4 3 6 8 8 11 12 10 9 8 8 8 7 6 6 5
4 2 1 4 12 15 15 10 4 3 4 3 3 3 3 3 4 2 1 2 2 1 2 4 4 3 2 2 2 1 1 1 3 3 2 3 1 1 1 1 3 3 2 3 3 1 2 2 2 2 0 2 4 3 4 6 5 5 4 4 4 2 2 2 4 1 2 3 4 3 5 6 4 2 3 4 8 11 12 11 9 9 10 9 7 6 6 5
3 2 1 6 14 16 11 5 3 3 3 3 2 2 2 3 4 4 2 2 2 2 2 2 4 3 2 3 2 2 2 1 2 2 2 3 2 1 1 2 0 2 3 2 2 1 2 3 2 3 3 4 4 3 0 3 4 5 2 2 3 3 4 4 5 3 1 2 2 2 4 4 2 2 2 3 7 9 9 9 10 9 9 8 6 6 5 5
2 2 3 8 15 14 7 4 4 3 4 2 1 0 1 2 2 4 4 2 2 3 2 2 4 4 4 4 2 2 2 2 3 4 2 3 3 1 2 3 2 1 3 2 1 0 2 3 1 3 3 3 4 5 4 4 4 2 1 1 3 2 3 4 4 2 2 3 1 1 4 3 1 2 2 0 3 5 7 8 9 8 6 6 7 6 6 6
2 2 2 7 14 11 5 5 5 6 6 3 2 3 1 2 3 4 4 5 4 4 3 3 4 4 5 4 4 5 5 3 4 5 3 4 3 0 3 3 2 1 2 1 2 2 1 2 3 1 3 4 4 4 4 5 2 2 2 1 1 3 4 3 1 1 2 4 5 5 6 3 1 3 3 3 2 3 6 7 6 5 5 5 6 5 5 6
2 2 2 4 10 8 3 2 2 4 7 7 6 6 4 2 4 7 7 6 4 4 3 3 4 5 4 4 4 4 6 5 5 3 3 3 2 2 3 4 1 2 2 1 1 1 2 2 3 4 6 8 6 3 3 2 1 1 1 1 1 3 5 3 1 2 2 2 4 5 5 3 2 2 1 1 0 4 7 6 5 4 5 6 5 5 6 6
2 1 1 2 4 4 3 1 1 2 5 6 5 6 7 6 3 5 8 7 5 6 4 3 4 4 3 5 4 4 7 7 5 2 3 3 2 2 2 4 3 2 1 2 3 3 2 2 2 5 7 8 6 5 4 3 3 2 2 3 4 3 3 3 2 3 2 1 4 7 5 3 4 4 5 5 5 7 8 7 6 6 6 7 6 6 6 5
1 1 3 3 2 4 4 3 3 3 3 5 5 4 8 10 5 3 6 6 5 7 5 2 4 5 5 6 5 5 6 6 5 3 2 2 1 3 3 3 3 3 4 3 3 4 3 2 3 4 5 5 5 5 3 3 3 5 4 6 8 6 5 5 4 4 4 3 8 9 5 4 8 8 7 8 7 7 8 8 8 8 7 6 5 5 6 6
1 0 2 2 1 4 6 7 8 7 6 6 3 1 5 10 9 6 5 2 3 7 6 3 5 8 8 8 6 5 5 5 5 4 3 2 2 0 3 3 2 4 4 3 2 3 5 3 3 3 3 4 3 4 4 3 2 4 6 9 11 8 5 6 7 8 8 7 10 9 4 6 10 8 6 8 9 9 9 9 7 7 5 4 6 7 7 7
1 0 2 1 1 3 5 8 11 11 10 7 4 4 5 8 10 8 4 2 2 5 7 7 8 8 8 8 7 7 7 7 5 4 3 3 3 3 1 1 2 2 4 3 2 2 3 2 1 2 3 4 2 2 3 3 3 5 7 10 11 8 6 7 9 10 8 8 11 10 10 12 12 8 6 7 8 8 6 4 3 4 5 6 7 8 8 7
2 0 1 1 1 1 2 4 8 9 8 8 7 7 5 5 8 6 3 4 6 5 6 10 10 8 8 8 9 9 9 9 8 7 7 6 4 4 3 3 2 2 3 2 1 1 1 1 1 3 1 5 5 3 3 1 2 5 9 11 8 5 6 10 10 7 5 9 12 10 10 13 10 4 4 3 3 3 3 4 4 5 6 7 8 8 7 7
1 1 1 2 1 2 2 3 6 6 6 7 8 8 5 6 8 5 1 3 5 4 6 11 10 6 5 7 9 10 8 7 7 6 5 6 6 4 3 4 5 5 2 2 1 0 1 1 1 5 2 4 5 2 3 3 4 6 13 14 10 7 9 10 7 6 7 9 9 6 6 10 9 3 1 1 3 5 6 6 5 5 6 8 8 8 8 8
1 2 1 3 0 2 3 3 5 6 6 6 8 9 8 8 6 5 3 2 2 2 3 7 9 5 4 7 11 10 7 6 6 4 4 3 4 4 3 3 6 7 5 4 1 0 3 3 1 3 2 4 5 2 1 6 5 8 11 10 10 10 11 10 7 8 9 6 5 6 8 9 7 3 4 4 5 6 7 6 6 6 6 7 8 8 8 8
Wind_Direction
322 328 327 324 320 314 306 299 298 303 309 308 308 314 313 313 313 317 321 322 326 329 334 335 337 336 334 336 335 335 332 328 324 315 295 292 227 196 249 314 328 181 166 164 163 155 122 101 119 94 73 44 15 359 352 347 70 54 79 108 219 201 208 193 189 186 157 276 284 308 334 143 289 305 314 331 4 323 305 297 269 271 271 248 258 292 305 235
312 309 309 304 295 299 305 298 291 294 298 298 303 307 304 305 308 313 315 317 321 323 329 332 334 333 334 338 338 339 333 327 324 316 319 337 149 155 178 314 321 173 168 175 181 165 122 110 181 93 52 31 338 4 1 323 82 93 117 137 225 203 216 198 193 203 179 254 269 288 286 205 260 276 337 305 297 323 320 294 287 285 277 270 277 284 261 209
303 298 305 300 289 286 293 299 293 288 293 293 297 303 302 304 310 316 317 315 317 323 327 329 333 333 337 340 341 343 333 330 331 325 47 102 122 125 131 39 322 165 177 183 188 181 141 163 171 123 55 23 304 24 43 325 139 164 122 163 241 218 235 248 234 232 219 233 267 284 278 267 269 253 298 312 298 304 285 276 287 290 282 267 270 267 214 201
302 301 308 300 291 283 292 304 300 302 306 303 310 316 315 314 316 318 317 314 315 321 323 325 332 332 335 339 344 341 337 349 338 241 120 117 118 115 127 151 155 169 184 177 173 192 194 176 154 124 80 21 313 25 140 254 223 181 137 188 235 205 235 267 257 252 243 238 283 293 321 304 283 240 239 357 320 295 268 250 245 268 282 277 262 251 210 201
301 295 302 296 290 287 300 307 306 310 308 313 321 320 318 315 316 317 314 312 312 316 318 318 319 322 325 332 339 338 355 28 240 229 156 135 126 127 137 149 162 181 183 176 176 183 189 120 99 78 74 144 324 39 242 235 145 171 214 210 227 179 218 268 263 291 317 336 323 313 310 290 298 325 239 193 265 272 267 251 234 245 269 278 275 253 214 206
285 281 283 286 286 284 292 300 301 302 303 315 315 309 310 310 311 311 308 306 305 307 309 308 307 310 311 317 324 337 37 55 249 203 179 174 160 159 154 164 175 188 186 186 186 169 162 87 83 104 89 105 197 188 243 248 145 218 272 246 244 219 229 274 294 315 331 331 304 296 284 299 329 306 248 210 241 252 260 256 251 255 262 274 284 266 235 227
281 279 273 267 268 271 283 286 284 292 302 305 303 303 306 306 307 305 303 300 296 298 301 300 301 299 298 297 298 4 90 241 254 230 239 238 217 214 182 205 199 191 190 189 180 155 131 91 120 155 109 43 209 208 239 276 170 201 261 281 267 235 227 256 283 287 281 260 264 274 321 315 286 290 311 264 263 261 265 260 258 268 273 282 285 270 264 264
296 288 277 265 257 262 270 273 277 285 290 293 298 304 306 307 307 306 304 302 300 303 304 299 297 295 288 218 183 10 341 251 256 247 258 246 220 222 213 220 206 195 191 191 181 154 137 132 174 162 117 232 190 202 261 340 341 193 226 270 281 261 244 261 271 270 270 261 262 298 302 277 252 270 309 274 274 274 275 276 262 274 290 294 295 302 313 324
308 299 285 273 262 258 258 263 273 276 284 296 305 310 312 311 310 310 307 305 307 307 311 303 288 267 219 164 102 26 273 247 257 255 255 232 215 218 221 213 200 198 186 193 186 146 152 175 200 184 175 208 178 212 307 39 280 210 202 235 271 282 276 283 282 272 276 267 251 298 286 279 266 262 268 261 261 271 297 314 279 290 304 310 354 10 21 27
308 307 291 279 272 267 261 261 273 284 299 308 316 317 315 314 313 312 309 309 310 309 313 296 266 231 200 155 97 137 262 248 266 259 239 220 209 209 212 196 193 199 184 176 183 163 172 198 198 155 158 160 170 222 105 134 217 218 217 270 268 287 290 273 274 279 294 282 232 230 268 281 295 237 264 265 253 270 333 307 292 325 311 336 36 43 45 45
301 303 288 278 272 262 251 248 273 293 305 313 318 318 314 316 315 313 313 312 312 312 311 282 245 212 182 149 133 206 259 260 262 244 209 203 186 188 192 184 191 200 193 152 162 190 198 207 168 114 145 187 173 274 278 188 185 206 322 316 301 317 310 273 265 277 304 289 211 173 254 295 350 201 241 258 261 307 334 297 314 357 341 24 61 56 48 45
292 294 280 269 254 235 225 225 254 285 303 316 316 318 317 316 315 312 313 312 312 313 303 271 225 191 156 123 198 228 251 253 242 196 176 163 148 174 191 207 211 205 206 160 127 154 166 197 144 122 229 172 136 307 268 210 149 303 44 334 304 345 323 281 270 267 202 262 179 138 295 313 273 224 242 255 274 329 319 303 343 18 24 52 68 58 49 38
291 288 274 258 232 215 213 216 243 281 301 312 310 316 316 315 315 312 314 314 314 313 293 247 207 182 152 211 235 234 243 240 226 201 182 163 158 208 219 212 203 201 212 169 129 110 113 182 146 154 193 125 221 267 97 4 354 309 14 352 301 354 317 280 274 3 317 241 162 135 288 291 258 248 255 267 293 327 310 319 15 37 53 64 63 58 51 37
289 279 263 244 217 207 204 212 258 282 300 304 306 314 315 317 318 317 324 322 320 315 281 202 185 170 153 254 260 253 240 229 229 228 223 212 199 213 208 191 184 190 198 156 132 98 86 117 121 115 136 130 233 307 16 358 359 318 332 351 322 332 279 288 289 310 320 283 148 138 215 262 272 276 275 278 296 314 302 347 35 51 66 66 58 57 51 41
281 267 247 227 212 203 194 208 260 283 298 302 311 319 320 323 323 332 342 338 341 345 156 156 165 151 86 275 274 276 230 219 227 228 222 208 191 197 201 188 180 165 143 135 125 97 83 88 93 100 273 297 49 47 7 345 353 14 322 306 327 206 261 304 293 193 220 287 109 125 219 267 273 279 283 289 323 346 319 13 49 59 62 58 53 54 49 40
269 254 232 216 208 200 196 215 264 290 299 304 313 320 323 324 326 347 358 13 51 88 109 126 153 133 358 269 270 254 214 210 218 213 200 190 188 181 163 157 154 141 130 131 133 124 94 72 56 130 218 332 78 79 36 1 334 348 194 249 265 219 256 315 302 239 180 264 60 132 233 281 277 280 287 298 332 352 346 31 64 65 59 58 53 50 48 37
256 240 219 206 203 199 200 218 261 292 300 303 310 318 321 320 310 352 34 76 93 93 90 104 141 96 290 237 259 265 212 201 199 187 183 182 184 169 141 124 119 122 108 99 121 116 62 52 36 250 39 48 109 99 54 327 296 311 276 230 246 231 233 289 298 315 31 58 350 277 241 256 276 289 291 300 330 343 346 50 82 80 67 63 59 54 48 39
243 227 205 197 203 198 199 214 260 298 303 306 315 318 319 321 282 199 79 102 97 76 62 66 106 66 273 230 206 234 185 181 181 176 181 175 167 161 132 110 117 110 85 53 60 71 26 18 57 7 11 47 129 116 158 234 229 251 256 243 269 263 245 258 271 297 349 6 317 302 285 266 282 288 288 305 338 333 352 88 100 89 79 68 60 55 48 43
231 213 197 198 200 193 198 208 270 307 307 310 317 319 319 343 4 193 136 118 111 104 160 214 161 156 254 252 209 177 130 151 161 172 177 163 161 157 112 98 104 97 93 59 325 33 101 47 59 148 232 197 193 179 198 220 212 226 241 228 257 274 262 258 259 268 328 348 297 284 277 275 286 286 297 325 354 348 21 98 99 83 82 68 61 56 47 48
220 205 196 197 191 187 202 203 284 312 313 313 323 331 323 29 23 321 270 178 209 211 190 199 196 208 278 272 154 147 135 137 148 174 169 163 158 147 97 68 66 56 118 157 218 265 116 119 179 209 212 206 210 209 211 226 220 224 257 265 257 260 270 265 264 277 352 2 275 265 275 287 283 289 320 340 16 21 33 92 87 74 74 61 64 58 48 50
212 200 195 190 182 188 200 202 289 304 307 313 322 336 191 167 108 278 263 258 247 238 243 228 210 236 259 200 156 156 139 109 308 176 163 165 150 145 167 65 86 25 224 160 146 18 107 160 221 222 214 213 218 213 211 239 248 224 245 270 275 256 262 258 250 280 337 162 267 299 341 295 286 311 355 9 41 31 23 80 83 78 76 63 64 58 49 48
204 198 194 186 179 187 194 210 291 285 286 302 294 226 191 178 170 211 181 289 273 242 237 244 227 246 255 228 204 180 143 221 271 244 175 157 145 169 192 111 143 205 199 133 102 93 144 208 237 232 213 220 248 197 174 209 209 195 202 224 264 256 278 281 272 304 345 193 270 317 337 281 284 15 36 36 59 46 31 64 71 76 78 63 58 54 48 43
202 199 194 186 181 193 202 236 272 262 254 263 244 195 181 182 169 157 124 339 292 258 222 232 218 230 244 242 220 189 184 211 221 238 186 155 151 188 159 146 181 188 160 173 161 158 190 234 243 232 179 188 253 230 169 170 192 205 202 198 249 244 204 276 289 319 327 314 279 315 315 276 275 72 62 51 73 72 56 63 61 64 74 68 62 53 46 45
201 198 192 185 188 209 223 272 273 241 219 217 211 192 179 181 164 147 113 57 286 277 229 214 195 201 216 216 189 177 199 209 183 220 183 162 151 155 165 172 176 186 199 197 183 184 223 242 238 165 144 173 227 258 202 167 237 243 218 213 238 241 214 225 280 323 332 351 356 9 338 298 259 120 102 80 81 73 62 69 63 52 62 67 64 54 44 43
199 196 189 186 195 208 231 281 260 195 193 200 193 190 177 178 171 149 101 25 285 291 278 210 187 192 189 153 169 172 170 206 205 209 176 169 157 137 193 174 155 209 219 192 181 217 247 243 117 110 142 162 194 253 223 173 223 283 237 217 220 229 228 223 359 13 14 340 326 34 7 298 312 357 165 146 84 68 53 59 63 50 48 53 52 46 35 35
201 200 195 192 191 189 224 272 206 172 187 218 201 185 172 170 176 165 99 39 286 271 244 186 183 179 171 134 159 138 90 262 257 107 148 168 172 129 177 186 124 216 206 174 164 222 251 233 160 168 168 146 176 246 231 167 157 279 248 207 193 184 179 164 85 59 90 254 282 49 103 262 314 322 201 169 109 90 69 54 62 53 47 49 48 44 34 31
201 208 205 198 185 181 198 204 182 174 181 219 194 180 178 164 175 190 86 18 290 223 138 208 286 145 167 184 153 130 153 240 99 69 105 132 206 78 136 220 172 204 183 117 139 234 229 217 182 194 187 170 199 250 222 160 137 236 237 139 134 141 157 158 116 136 217 256 314 358 149 243 293 280 214 159 128 106 88 69 64 56 50 52 48 45 41 35
200 210 209 202 192 192 200 194 181 193 204 182 166 167 167 159 170 123 77 344 280 137 107 270 83 98 138 64 71 117 197 200 113 230 359 91 123 66 102 220 177 196 187 118 200 255 201 185 200 178 168 197 214 228 187 155 150 237 204 127 123 140 155 147 120 149 250 6 309 294 153 247 262 271 268 146 167 170 140 137 104 79 61 55 52 46 41 35
203 206 205 201 206 213 219 232 226 211 209 165 146 150 142 151 150 77 85 208 265 56 65 59 117 54 34 64 44 75 90 17 128 232 2 82 78 76 162 209 156 184 259 129 205 255 90 220 200 149 152 207 211 214 174 162 183 217 152 105 61 74 93 94 112 118 40 8 251 234 184 207 262 278 293 158 219 213 164 156 132 104 76 64 56 49 43 34
208 207 205 202 213 221 220 232 232 217 200 174 153 138 138 143 112 102 202 222 20 90 120 100 164 126 92 102 23 320 134 4 78 37 28 63 16 36 147 190 103 124 325 10 254 257 318 295 190 147 181 196 149 96 124 156 155 129 97 60 25 24 43 45 75 88 59 279 251 221 193 186 265 280 230 181 264 201 156 151 150 128 100 88 69 52 50 38
211 210 210 210 218 217 202 222 230 219 207 185 153 125 126 126 98 183 214 210 49 228 141 127 182 125 130 138 164 189 137 7 28 92 84 90 33 31 61 99 69 69 4 336 304 306 329 318 248 249 207 132 101 82 23 23 83 101 84 68 36 340 9 21 359 47 114 253 267 231 181 165 222 265 284 317 326 288 164 164 163 149 134 121 99 78 60 44
215 214 214 217 223 219 208 222 232 221 211 190 147 118 115 173 199 205 219 80 99 218 166 170 185 155 164 149 158 178 149 173 205 134 140 142 150 185 186 173 160 75 345 256 269 338 307 247 266 309 275 137 108 87 3 7 38 82 98 89 75 324 349 357 306 335 213 253 272 174 132 157 233 247 319 333 338 328 183 152 152 148 142 138 131 131 105 60
224 221 219 221 223 222 223 228 234 219 202 179 138 98 111 212 217 186 188 188 199 208 136 131 138 141 144 134 202 190 146 194 196 168 151 122 148 233 255 214 169 125 248 207 211 349 295 292 309 339 288 176 138 152 208 283 105 135 144 129 122 149 195 265 265 273 261 269 279 153 132 286 266 285 337 333 337 334 63 112 127 133 134 141 147 149 129 92
230 227 225 224 220 221 223 222 222 203 182 161 122 107 164 221 224 164 198 222 218 174 66 99 110 109 130 169 223 181 153 220 181 150 142 102 120 250 263 244 188 128 112 148 181 182 210 299 239 178 240 190 168 181 165 141 153 173 157 138 146 160 167 214 226 209 248 280 297 257 190 212 224 286 328 342 3 20 66 91 101 107 122 136 136 139 137 122
224 219 217 213 209 211 209 207 205 186 168 146 120 173 197 209 173 160 212 227 219 121 44 71 105 116 183 256 265 200 179 224 163 131 151 157 175 203 218 222 190 148 122 148 230 182 169 260 251 231 220 165 176 196 134 113 122 195 130 115 166 189 162 179 208 179 185 294 296 236 219 206 176 206 335 32 46 54 67 83 100 111 128 135 138 150 156 146
195 189 195 195 195 196 194 192 183 171 162 137 153 203 211 199 166 177 200 185 179 144 113 65 86 139 228 282 270 235 196 182 147 138 199 203 202 207 213 226 189 171 166 165 211 186 145 268 278 341 345 183 184 188 142 133 184 159 128 176 215 181 132 122 265 148 96 257 270 214 230 288 31 216 306 63 70 76 81 97 123 145 155 153 166 176 177 166
170 168 177 188 191 189 188 183 170 166 159 139 192 214 206 196 191 183 192 160 149 124 131 173 172 176 213 236 229 221 171 144 156 156 215 230 227 208 209 247 185 184 194 179 215 208 154 263 280 166 193 242 207 164 79 59 138 130 173 214 203 118 85 97 223 339 40 243 274 262 217 241 233 240 274 108 154 160 155 160 165 179 185 183 189 192 194 173
156 152 162 192 192 188 188 181 168 163 146 164 211 226 190 201 229 188 176 152 111 100 139 195 205 185 192 200 225 207 165 183 178 167 198 229 239 198 180 213 169 194 219 182 187 245 129 237 283 229 179 273 4 92 17 356 87 130 193 206 117 132 258 85 162 218 226 238 275 290 267 236 207 203 193 202 200 183 180 188 189 198 200 199 200 205 206 180
141 131 127 194 187 188 187 179 167 158 158 193 216 226 181 193 239 216 172 139 102 112 167 212 212 172 180 180 197 193 178 189 179 173 190 195 230 217 148 182 170 164 272 157 172 243 108 163 275 296 207 282 33 88 200 270 1 64 105 305 62 161 180 166 170 171 186 225 258 289 299 274 232 198 186 201 190 168 175 190 196 203 202 202 199 198 198 181
123 114 328 179 177 182 179 172 164 171 203 203 210 208 167 180 221 240 211 158 159 151 182 204 194 192 203 178 182 194 187 194 180 182 210 190 214 262 136 149 155 114 22 100 153 202 102 166 244 302 328 105 159 205 191 185 174 117 169 231 251 218 169 229 226 134 146 189 222 267 279 266 254 194 184 199 175 165 179 183 190 202 204 207 205 196 192 179
106 114 309 163 166 171 168 168 187 206 212 217 191 173 159 165 178 195 347 134 145 114 123 155 178 194 194 177 192 178 132 181 186 188 233 216 215 257 226 148 160 154 63 90 137 184 170 171 202 234 290 187 220 245 184 174 163 151 178 200 191 169 144 245 265 235 140 183 188 217 262 271 265 216 198 193 170 175 185 177 181 201 204 206 209 197 188 178
109 144 158 154 165 168 167 189 226 196 212 222 184 169 149 138 155 167 163 97 116 131 101 145 180 176 193 200 171 108 109 169 220 199 226 239 225 208 311 339 345 130 103 126 190 206 130 111 167 224 213 211 246 313 12 168 136 134 160 161 155 144 131 179 236 245 219 230 154 164 254 273 277 260 259 205 176 179 183 172 177 199 205 200 202 192 179 176
132 144 124 152 166 170 173 216 227 218 241 237 170 233 132 124 162 174 172 164 148 149 149 187 184 180 216 210 135 138 169 181 219 211 228 255 233 210 331 331 329 70 95 128 219 139 90 96 171 262 308 318 313 335 354 25 79 124 273 111 144 163 147 173 207 187 183 236 219 253 255 245 349 326 321 123 163 168 180 186 188 196 199 195 196 186 172 175
133 117 85 157 174 183 198 210 205 215 228 232 247 248 206 136 176 176 179 191 180 156 164 196 190 194 218 190 146 174 176 168 230 222 203 215 218 270 5 351 319 174 132 186 195 181 195 146 140 201 311 319 324 343 348 350 35 170 258 280 154 129 116 115 150 134 181 219 218 240 251 241 337 348 14 56 84 184 203 209 207 198 197 205 205 187 177 180
124 99 46 156 180 201 239 204 187 212 214 215 227 228 229 230 195 182 185 196 188 162 166 205 189 183 194 166 151 185 185 192 226 214 162 197 260 339 360 357 351 175 188 266 164 128 177 179 145 166 223 246 245 226 239 270 249 178 256 268 194 140 136 133 143 199 218 218 215 232 247 273 333 343 316 351 339 224 231 235 245 237 212 211 210 194 187 183
134 143 116 129 177 221 254 192 159 226 210 204 218 223 218 228 231 185 185 200 206 186 196 219 176 164 179 169 171 210 211 211 217 184 151 186 254 290 314 356 30 121 80 41 52 67 114 193 187 186 220 234 214 210 214 160 148 203 257 242 216 205 175 153 159 209 217 278 264 242 220 241 275 237 213 228 220 220 234 240 245 244 230 216 205 194 191 186
142 165 167 146 161 217 235 230 205 214 209 196 203 217 212 214 225 208 197 205 199 190 208 239 169 185 197 173 178 216 212 204 203 190 166 166 232 292 315 15 39 17 11 33 38 71 111 239 234 185 231 232 169 187 206 131 157 212 242 255 245 229 174 164 200 212 182 214 258 251 193 188 250 239 199 210 223 226 236 237 236 240 236 214 186 176 183 184
181 137 187 153 134 200 212 212 205 210 213 205 207 231 211 206 203 205 206 196 177 189 204 226 201 204 195 169 176 206 196 194 207 194 159 145 157 341 354 2 358 358 21 31 6 84 121 239 242 155 243 246 161 173 185 151 193 222 227 244 252 245 191 174 212 215 194 216 254 264 235 219 251 254 208 203 216 223 231 231 228 232 224 177 158 167 178 181
144 9 282 359 58 213 217 201 196 206 209 201 216 238 215 203 203 203 172 125 201 209 203 217 218 205 194 180 183 199 195 191 205 201 170 162 165 148 116 302 305 10 50 54 358 70 123 229 231 143 257 276 286 260 215 179 212 240 241 239 243 248 217 201 226 226 211 229 252 262 263 259 262 254 225 217 215 219 237 239 209 210 192 166 167 174 179 184
133 142 259 31 23 245 255 194 187 206 212 200 216 227 205 195 207 204 158 175 209 210 198 215 216 195 197 202 200 213 208 185 192 202 175 165 186 187 179 196 173 78 59 77 345 349 86 197 155 90 358 299 311 293 253 200 207 252 264 256 251 262 250 237 237 231 221 239 249 255 263 269 267 230 205 235 202 181 224 234 219 207 184 169 172 178 182 189
129 10 96 112 217 202 185 188 178 195 213 208 216 217 199 209 208 187 183 216 206 194 197 207 203 184 200 210 212 225 217 179 187 201 171 168 188 184 178 182 156 138 140 159 171 357 97 178 38 69 84 283 309 285 267 7 16 292 273 264 252 246 250 249 235 207 210 227 242 250 254 261 262 238 220 247 167 172 208 214 210 206 185 171 173 182 189 196
190 316 90 111 216 220 182 179 176 194 212 208 212 213 210 216 197 166 213 290 94 153 218 198 184 172 183 207 219 222 194 154 148 129 99 93 93 88 100 133 134 141 157 159 146 90 129 142 119 97 144 273 301 280 303 36 12 286 268 251 236 233 242 252 252 233 217 196 202 225 232 246 256 272 282 248 199 200 216 205 198 200 190 183 183 184 194 202